Pagina principale
METAR-TAF:

METAR-TAF

Aeroporti :

Town MET

Windhoek, Namibia

latitudine: 22-34S, longitudine: 017-06E, altezza: 1725 m

Osservazione

Il bollettino è stato emesso 57 minuti fa, alle 12:00 UTC
Vento 6 kt da sud
Temperature 18°C
Umidità 83%
Pressione 1019 hPa

METAR: FYWW 061200Z AUTO 18006KT //// // ////// 18/15 Q1019

Ora: 14:57 (12:57 UTC)


TAF: mancante

Osservazioni e previsioni meteorologiche di più di 4000 aeroporti (messaggi METAR e TAF).

Le stazioni disponibili sono rappresentate dai dischi gialli e rossi sulla carta.

Puntare il mouse per vedere il nome della stazione.

Clicca sopra per visualizzare le osservazioni e previsioni meteorologiche.

Per cambiare la mappa : fare clic sui pulsanti verdi con una croce nera per ingrandire, il pulsante verde con un trattino per diminuire, o sulla freccia verde per le mappe adiacenti.


METAR-TAF: